OpenBCM V1.13 (Linux)

Packet Radio Mailbox

DB0FHN

[JN59NK Nuernberg]

 Login: GUEST





  
EA1BGK > KEPLER   08.01.03 21:32l 806 Lines 21298 Bytes #999 (0) @ EU
BID : 2050-EA1BGK
Read: DB0FHN GUEST
Subj: Old Instantrack Keplerians:8/01/03
Path: DB0FHN<DB0RGB<OK0PPL<RZ6HXA<LX0PAC<LX0HST<HA3PG<JE7YGF<JM1YSB<7M3TJZ<
      EA5RKV<EA3RKU<EA1URF<EC1K<EA1BGK
Sent: 1030108/1750Z @:EA1BGK #:136 TSTH143b $:2050-EA1BGK

[¯¯¯ TST HOST 1.43b, Dif/Utc.:-1, Escrito el: Mie Ene 08 18:51:18 2003 ®®®]

Satellite: AO-10
Catalog number: 14129
Epoch time:      101231.25423769
Element set:     828
Inclination:       26.4160 deg
RA of node:       257.1109 deg
Eccentricity:    0.6013870
Arg of perigee:   175.6666 deg
Mean anomaly:     193.9413 deg
Mean motion:    2.05868335 rev/day
Decay rate:   -2.2999E-007 rev/day^2
Epoch rev:           10877
Checksum:              413

Satellite: UO-11
Catalog number: 14781
Epoch time:      101232.21667532
Element set:     588
Inclination:       98.0386 deg
RA of node:       195.8361 deg
Eccentricity:    0.0010036
Arg of perigee:   161.3080 deg
Mean anomaly:     198.8499 deg
Mean motion:   14.74219156 rev/day
Decay rate:    1.3640E-005 rev/day^2
Epoch rev:           93547
Checksum:              324

Satellite: RS-10/11
Catalog number: 18129
Epoch time:      101231.94008431
Element set:     993
Inclination:       82.9254 deg
RA of node:       191.5245 deg
Eccentricity:    0.0010615
Arg of perigee:   315.5652 deg
Mean anomaly:      44.4641 deg
Mean motion:   13.72576214 rev/day
Decay rate:    8.1000E-007 rev/day^2
Epoch rev:           70938
Checksum:              291

Satellite: UO-14
Catalog number: 20437
Epoch time:      101231.68052085
Element set:     758
Inclination:       98.3559 deg
RA of node:       289.1469 deg
Eccentricity:    0.0011734
Arg of perigee:    30.2523 deg
Mean anomaly:     329.9335 deg
Mean motion:   14.30748658 rev/day
Decay rate:    1.3899E-006 rev/day^2
Epoch rev:           60413
Checksum:              330

Satellite: UO-15
Catalog number: 20438
Epoch time:      101231.73783843
Element set:     548
Inclination:       98.3265 deg
RA of node:       280.9500 deg
Eccentricity:    0.0010905
Arg of perigee:    40.8852 deg
Mean anomaly:     319.3151 deg
Mean motion:   14.29818805 rev/day
Decay rate:    1.0600E-006 rev/day^2
Epoch rev:           60386
Checksum:              303

Satellite: AO-16
Catalog number: 20439
Epoch time:      101232.25948615
Element set:     561
Inclination:       98.4006 deg
RA of node:       298.2369 deg
Eccentricity:    0.0011878
Arg of perigee:    32.2461 deg
Mean anomaly:     327.9439 deg
Mean motion:   14.30879905 rev/day
Decay rate:    1.6300E-006 rev/day^2
Epoch rev:           60424
Checksum:              318

Satellite: DO-17
Catalog number: 20440
Epoch time:      101232.20600068
Element set:     549
Inclination:       98.4142 deg
RA of node:       300.8965 deg
Eccentricity:    0.0011926
Arg of perigee:    31.3512 deg
Mean anomaly:     328.8383 deg
Mean motion:   14.31097995 rev/day
Decay rate:    1.6200E-006 rev/day^2
Epoch rev:           60429
Checksum:              287

Satellite: WO-18
Catalog number: 20441
Epoch time:      101232.20333916
Element set:     580
Inclination:       98.4091 deg
RA of node:       300.4117 deg
Eccentricity:    0.0012614
Arg of perigee:    34.1847 deg
Mean anomaly:     326.0147 deg
Mean motion:   14.30971631 rev/day
Decay rate:    1.5499E-006 rev/day^2
Epoch rev:           60428
Checksum:              277

Satellite: LO-19
Catalog number: 20442
Epoch time:      101231.75226683
Element set:     559
Inclination:       98.4226 deg
RA of node:       302.0956 deg
Eccentricity:    0.0012891
Arg of perigee:    32.0102 deg
Mean anomaly:     328.1863 deg
Mean motion:   14.31119084 rev/day
Decay rate:    1.5800E-006 rev/day^2
Epoch rev:           60426
Checksum:              282

Satellite: FO-20
Catalog number: 20480
Epoch time:      101231.78885017
Element set:     350
Inclination:       99.0548 deg
RA of node:       288.3105 deg
Eccentricity:    0.0540408
Arg of perigee:   165.1254 deg
Mean anomaly:     196.6468 deg
Mean motion:   12.83295810 rev/day
Decay rate:   -3.3000E-007 rev/day^2
Epoch rev:           54025
Checksum:              299

Satellite: AO-21
Catalog number: 21087
Epoch time:      101232.43537117
Element set:     879
Inclination:       82.9441 deg
RA of node:         2.5518 deg
Eccentricity:    0.0035509
Arg of perigee:   338.9274 deg
Mean anomaly:      21.0406 deg
Mean motion:   13.74790697 rev/day
Decay rate:    7.2000E-007 rev/day^2
Epoch rev:           52970
Checksum:              305

Satellite: RS-12/13
Catalog number: 21089
Epoch time:      101232.50284760
Element set:     358
Inclination:       82.9196 deg
RA of node:       227.2743 deg
Eccentricity:    0.0030004
Arg of perigee:    13.5586 deg
Mean anomaly:     346.6368 deg
Mean motion:   13.74278854 rev/day
Decay rate:    7.0999E-007 rev/day^2
Epoch rev:           52864
Checksum:              438

Satellite: UO-22
Catalog number: 21575
Epoch time:      101232.19305724
Element set:     286
Inclination:       98.1242 deg
RA of node:       243.0266 deg
Eccentricity:    0.0008099
Arg of perigee:   354.8899 deg
Mean anomaly:       5.2206 deg
Mean motion:   14.38216879 rev/day
Decay rate:    3.2600E-006 rev/day^2
Epoch rev:           52957
Checksum:              319

Satellite: KO-23
Catalog number: 22077
Epoch time:      101231.93471200
Element set:     28
Inclination:       66.0822 deg
RA of node:       192.5466 deg
Eccentricity:    0.0011441
Arg of perigee:   219.4311 deg
Mean anomaly:     140.5875 deg
Mean motion:   12.86370733 rev/day
Decay rate:   -3.7000E-007 rev/day^2
Epoch rev:           42386
Checksum:              275

Satellite: AO-27
Catalog number: 22825
Epoch time:      101232.52498305
Element set:     57
Inclination:       98.3471 deg
RA of node:       278.2014 deg
Eccentricity:    0.0009630
Arg of perigee:    75.5133 deg
Mean anomaly:     284.7115 deg
Mean motion:   14.28453720 rev/day
Decay rate:    1.8900E-006 rev/day^2
Epoch rev:           41176
Checksum:              414

Satellite: IO-26
Catalog number: 22826
Epoch time:      101231.65258545
Element set:     39
Inclination:       98.3513 deg
RA of node:       278.2050 deg
Eccentricity:    0.0009982
Arg of perigee:    77.4507 deg
Mean anomaly:     282.7791 deg
Mean motion:   14.28627539 rev/day
Decay rate:    1.8099E-006 rev/day^2
Epoch rev:           41167
Checksum:              344

Satellite: KO-25
Catalog number: 22828
Epoch time:      101231.70524634
Element set:     14
Inclination:       98.3471 deg
RA of node:       278.4849 deg
Eccentricity:    0.0010908
Arg of perigee:    59.3526 deg
Mean anomaly:     300.8714 deg
Mean motion:   14.29043019 rev/day
Decay rate:    1.2100E-006 rev/day^2
Epoch rev:           37986
Checksum:              302

Satellite: POSAT
Catalog number: 22829
Epoch time:      101232.20426846
Element set:     39
Inclination:       98.3492 deg
RA of node:       279.3246 deg
Eccentricity:    0.0010842
Arg of perigee:    57.8107 deg
Mean anomaly:     302.4121 deg
Mean motion:   14.29118510 rev/day
Decay rate:    2.1299E-006 rev/day^2
Epoch rev:           41185
Checksum:              287

Satellite: RS-15
Catalog number: 23439
Epoch time:      101231.97337051
Element set:     575
Inclination:       64.8136 deg
RA of node:       207.0180 deg
Eccentricity:    0.0163846
Arg of perigee:   215.8909 deg
Mean anomaly:     143.0918 deg
Mean motion:   11.27542859 rev/day
Decay rate:   -1.3999E-007 rev/day^2
Epoch rev:           27385
Checksum:              336

Satellite: FO-29
Catalog number: 24278
Epoch time:      101231.65839860
Element set:     440
Inclination:       98.5289 deg
RA of node:        88.2350 deg
Eccentricity:    0.0350635
Arg of perigee:   197.2301 deg
Mean anomaly:     161.6684 deg
Mean motion:   13.52779039 rev/day
Decay rate:    5.0000E-008 rev/day^2
Epoch rev:           24722
Checksum:              322

Satellite: MO-30
Catalog number: 24305
Epoch time:      101232.21304215
Element set:     527
Inclination:       82.9344 deg
RA of node:       307.4807 deg
Eccentricity:    0.0029201
Arg of perigee:   288.5874 deg
Mean anomaly:      71.2086 deg
Mean motion:   13.73308932 rev/day
Decay rate:    2.0400E-006 rev/day^2
Epoch rev:           24835
Checksum:              278

Satellite: TO-31
Catalog number: 25396
Epoch time:      101231.91773049
Element set:     585
Inclination:       98.6821 deg
RA of node:       308.1798 deg
Eccentricity:    0.0001566
Arg of perigee:   284.3200 deg
Mean anomaly:      75.7814 deg
Mean motion:   14.23037274 rev/day
Decay rate:   -4.4000E-007 rev/day^2
Epoch rev:           16162
Checksum:              308

Satellite: GO-32
Catalog number: 25397
Epoch time:      101231.88537906
Element set:     93
Inclination:       98.6794 deg
RA of node:       307.6307 deg
Eccentricity:    0.0000741
Arg of perigee:   354.5672 deg
Mean anomaly:       5.5497 deg
Mean motion:   14.22615396 rev/day
Decay rate:    7.3000E-007 rev/day^2
Epoch rev:           16161
Checksum:              437

Satellite: SO-33
Catalog number: 25509
Epoch time:      101231.77799353
Element set:     378
Inclination:       31.4367 deg
RA of node:         3.2755 deg
Eccentricity:    0.0361973
Arg of perigee:   204.5113 deg
Mean anomaly:     153.7819 deg
Mean motion:   14.25811810 rev/day
Decay rate:    1.0929E-005 rev/day^2
Epoch rev:           14702
Checksum:              306

Satellite: PO-34
Catalog number: 25520
Epoch time:      101232.28808491
Element set:     429
Inclination:       28.4623 deg
RA of node:       256.2998 deg
Eccentricity:    0.0007401
Arg of perigee:   194.6234 deg
Mean anomaly:     165.4096 deg
Mean motion:   15.08660917 rev/day
Decay rate:    2.2289E-005 rev/day^2
Epoch rev:           15469
Checksum:              328

